Total_Precipitation_Accumulation
0.00 0.01 0.02 0.02 0.02 0.02 0.04 0.06 0.09 0.12 0.11 0.13 0.29 0.46 0.46 0.56 0.81 1.01 1.27 1.50 1.73 1.98 2.27 2.50 2.50 2.60 2.63 2.83 2.94 3.00 3.44 3.53 3.36 3.09 2.77 2.59 2.47 2.39 2.27 2.13 1.97 1.93 1.94 2.03
0.01 0.03 0.01 0.01 0.02 0.03 0.05 0.08 0.11 0.13 0.11 0.12 0.26 0.43 0.50 0.73 1.02 1.06 1.12 1.25 1.43 1.79 2.04 2.16 2.19 2.17 2.41 2.79 2.99 2.92 2.79 2.85 2.85 2.76 2.67 2.62 2.66 2.41 2.19 2.07 1.89 1.77 1.81 1.89
0.03 0.03 0.01 0.01 0.02 0.02 0.04 0.05 0.09 0.14 0.13 0.17 0.26 0.52 0.65 0.83 0.95 1.03 1.11 1.18 1.32 1.61 1.83 1.98 1.94 1.91 2.00 2.11 2.18 2.18 2.16 2.03 1.98 2.03 2.16 2.23 2.28 2.08 1.91 1.84 1.77 1.65 1.60 1.57
0.03 0.02 0.03 0.03 0.04 0.04 0.05 0.06 0.05 0.06 0.13 0.23 0.32 0.77 0.97 0.90 0.94 1.08 1.09 1.11 1.33 1.60 1.50 1.51 1.56 1.59 1.69 1.77 1.74 1.64 1.64 1.63 1.61 1.69 1.79 1.79 1.77 1.67 1.63 1.64 1.56 1.50 1.44 1.41
0.05 0.04 0.03 0.05 0.05 0.04 0.04 0.04 0.05 0.08 0.16 0.24 0.30 0.61 0.92 1.12 1.17 1.04 0.99 0.95 1.12 1.23 1.08 1.07 1.12 1.12 1.18 1.20 1.28 1.30 1.37 1.37 1.37 1.38 1.42 1.45 1.42 1.42 1.43 1.37 1.31 1.25 1.21 1.27
0.05 0.05 0.04 0.04 0.03 0.04 0.04 0.05 0.11 0.20 0.35 0.54 0.44 0.54 0.88 1.15 1.26 1.02 0.94 0.90 0.95 0.93 0.89 0.95 0.96 0.90 0.92 0.98 1.08 1.13 1.20 1.23 1.22 1.21 1.22 1.22 1.22 1.21 1.20 1.16 1.17 1.14 1.09 1.03
0.12 0.12 0.09 0.06 0.05 0.05 0.05 0.11 0.39 0.66 0.85 0.85 0.55 0.62 0.95 0.96 0.95 0.89 0.85 0.91 0.94 0.84 0.75 0.72 0.73 0.75 0.81 0.85 0.86 0.86 0.91 0.97 0.91 0.87 0.92 0.93 0.94 0.92 0.93 0.92 0.89 0.83 0.75 0.74
0.17 0.24 0.14 0.08 0.08 0.07 0.09 0.14 0.44 0.60 0.61 0.67 0.56 0.80 1.16 0.94 0.86 0.78 0.79 0.89 0.85 0.70 0.59 0.56 0.55 0.57 0.61 0.61 0.59 0.59 0.66 0.74 0.76 0.75 0.74 0.65 0.60 0.58 0.58 0.66 0.66 0.61 0.57 0.56
0.10 0.10 0.07 0.06 0.07 0.10 0.14 0.16 0.22 0.40 0.40 0.50 0.60 0.83 1.01 0.83 0.78 0.81 0.89 0.93 0.85 0.65 0.50 0.44 0.41 0.40 0.40 0.39 0.42 0.48 0.55 0.61 0.65 0.64 0.58 0.52 0.47 0.44 0.43 0.47 0.54 0.54 0.58 0.54
0.05 0.04 0.05 0.06 0.07 0.10 0.13 0.14 0.16 0.32 0.41 0.49 0.55 0.80 0.99 1.02 0.97 0.88 0.92 0.80 0.58 0.44 0.34 0.30 0.26 0.25 0.25 0.27 0.31 0.39 0.44 0.45 0.45 0.45 0.44 0.38 0.37 0.37 0.39 0.41 0.42 0.44 0.47 0.50
0.03 0.03 0.05 0.07 0.10 0.11 0.15 0.18 0.25 0.34 0.34 0.47 0.60 0.69 0.66 0.71 0.80 0.85 0.79 0.61 0.40 0.29 0.21 0.20 0.20 0.21 0.22 0.21 0.26 0.34 0.41 0.44 0.45 0.43 0.42 0.35 0.31 0.29 0.30 0.32 0.33 0.39 0.41 0.44
0.04 0.03 0.05 0.11 0.14 0.13 0.12 0.15 0.23 0.36 0.32 0.36 0.47 0.51 0.33 0.34 0.42 0.46 0.42 0.34 0.27 0.22 0.19 0.21 0.23 0.23 0.22 0.23 0.28 0.35 0.41 0.46 0.49 0.51 0.51 0.47 0.40 0.36 0.34 0.32 0.30 0.31 0.35 0.38
0.05 0.04 0.08 0.25 0.39 0.24 0.14 0.11 0.13 0.17 0.19 0.21 0.33 0.37 0.25 0.26 0.33 0.41 0.49 0.49 0.42 0.33 0.23 0.19 0.21 0.23 0.24 0.28 0.33 0.43 0.49 0.51 0.53 0.58 0.65 0.64 0.51 0.46 0.46 0.40 0.34 0.32 0.32 0.32
0.05 0.06 0.08 0.24 0.30 0.21 0.17 0.13 0.10 0.14 0.23 0.21 0.20 0.27 0.26 0.27 0.33 0.40 0.44 0.40 0.32 0.25 0.20 0.18 0.20 0.23 0.27 0.29 0.29 0.32 0.36 0.38 0.44 0.46 0.56 0.66 0.62 0.50 0.38 0.31 0.31 0.33 0.33 0.34
0.05 0.05 0.05 0.07 0.08 0.11 0.15 0.12 0.10 0.10 0.16 0.26 0.22 0.20 0.22 0.22 0.21 0.24 0.25 0.22 0.18 0.16 0.15 0.15 0.18 0.21 0.26 0.25 0.22 0.20 0.17 0.18 0.23 0.28 0.35 0.44 0.39 0.34 0.31 0.28 0.22 0.20 0.24 0.29
0.08 0.07 0.05 0.04 0.06 0.09 0.11 0.13 0.10 0.07 0.07 0.10 0.14 0.20 0.20 0.20 0.20 0.21 0.19 0.17 0.16 0.16 0.13 0.13 0.14 0.17 0.19 0.16 0.11 0.08 0.08 0.11 0.18 0.25 0.29 0.36 0.36 0.29 0.23 0.20 0.15 0.15 0.20 0.28
0.14 0.12 0.09 0.07 0.07 0.09 0.15 0.13 0.09 0.06 0.05 0.06 0.14 0.23 0.21 0.21 0.21 0.19 0.17 0.15 0.12 0.10 0.08 0.07 0.06 0.06 0.05 0.05 0.04 0.05 0.06 0.07 0.15 0.25 0.32 0.37 0.42 0.42 0.31 0.18 0.16 0.19 0.25 0.33
0.15 0.13 0.09 0.09 0.12 0.22 0.17 0.09 0.07 0.07 0.05 0.06 0.09 0.10 0.11 0.10 0.08 0.07 0.07 0.06 0.04 0.04 0.04 0.03 0.03 0.02 0.03 0.03 0.05 0.08 0.07 0.09 0.14 0.24 0.31 0.34 0.39 0.40 0.36 0.31 0.30 0.33 0.40 0.46
0.13 0.14 0.13 0.10 0.12 0.15 0.11 0.11 0.11 0.12 0.09 0.08 0.08 0.06 0.06 0.07 0.06 0.07 0.05 0.04 0.04 0.04 0.05 0.04 0.03 0.04 0.04 0.05 0.08 0.13 0.14 0.16 0.21 0.30 0.40 0.40 0.42 0.43 0.37 0.36 0.40 0.45 0.50 0.51
0.15 0.15 0.18 0.18 0.20 0.19 0.15 0.16 0.17 0.15 0.20 0.12 0.10 0.08 0.05 0.05 0.10 0.13 0.07 0.03 0.03 0.05 0.09 0.08 0.06 0.06 0.07 0.09 0.13 0.18 0.23 0.28 0.36 0.45 0.51 0.50 0.54 0.57 0.53 0.54 0.55 0.55 0.59 0.53
0.27 0.24 0.21 0.23 0.28 0.25 0.20 0.20 0.18 0.27 0.32 0.14 0.11 0.09 0.06 0.06 0.09 0.08 0.06 0.03 0.03 0.04 0.04 0.05 0.07 0.07 0.09 0.11 0.15 0.25 0.30 0.34 0.39 0.42 0.50 0.56 0.63 0.71 0.74 0.79 0.75 0.72 0.67 0.65
0.27 0.32 0.37 0.38 0.43 0.35 0.20 0.16 0.22 0.29 0.23 0.18 0.14 0.10 0.08 0.08 0.08 0.06 0.04 0.04 0.03 0.03 0.04 0.05 0.08 0.07 0.09 0.13 0.20 0.28 0.32 0.34 0.38 0.43 0.52 0.59 0.65 0.65 0.74 0.99 0.99 1.00 0.95 0.83
0.27 0.29 0.33 0.35 0.34 0.23 0.20 0.21 0.21 0.23 0.24 0.19 0.16 0.11 0.08 0.07 0.07 0.06 0.06 0.06 0.05 0.05 0.05 0.07 0.11 0.13 0.16 0.20 0.31 0.43 0.41 0.41 0.46 0.52 0.59 0.63 0.64 0.71 0.85 0.99 1.04 1.08 1.05 0.93
0.26 0.22 0.27 0.32 0.31 0.30 0.23 0.20 0.22 0.19 0.17 0.15 0.13 0.12 0.10 0.10 0.11 0.10 0.09 0.09 0.09 0.09 0.09 0.12 0.17 0.24 0.32 0.36 0.44 0.54 0.52 0.53 0.58 0.60 0.63 0.66 0.71 0.74 0.83 0.99 1.00 1.00 0.96 0.94
0.18 0.23 0.30 0.35 0.29 0.28 0.24 0.27 0.25 0.17 0.14 0.13 0.11 0.11 0.12 0.12 0.12 0.11 0.11 0.11 0.11 0.11 0.12 0.17 0.26 0.35 0.43 0.51 0.57 0.61 0.64 0.70 0.74 0.71 0.68 0.72 0.77 0.82 0.88 0.94 0.99 0.94 0.89 0.80
0.13 0.23 0.34 0.35 0.31 0.40 0.37 0.25 0.18 0.15 0.12 0.11 0.11 0.11 0.10 0.11 0.11 0.10 0.10 0.12 0.12 0.13 0.14 0.19 0.27 0.37 0.45 0.54 0.62 0.67 0.77 0.90 0.97 0.95 0.85 0.84 0.87 0.91 0.97 0.97 0.87 0.73 0.65 0.52